Weather History for Tegucigalpa, Honduras

Change the Weather History Date:

Friday, March 15, 2013

  Actual Average Record
Temperature  
Mean Temperature 68 °F -  
Max Temperature 76 °F 84 °F 89 °F (2001)
Min Temperature 59 °F 61 °F 55 °F (2001)
Cooling Degree Days 2    
Growing Degree Days 18 (Base 50)    
Moisture  
Dew Point 58 °F    
Average Humidity 77    
Maximum Humidity 94    
Minimum Humidity 46    
Precipitation  
Precipitation 0.00 in 0.03 in - ()
Sea Level Pressure  
Sea Level Pressure 30.10 in    
Wind  
Wind Speed 12 mph ()    
Max Wind Speed 23 mph    
Max Gust Speed -    
Visibility 6.3 miles    
Events      
Averages and records for this station are not official NWS values.
T = Trace of Precipitation, MM = Missing Value Source: Averaged Metar Reports

Daily Weather History Graph

Daily Weather History Graph

Search for Another Location

Airport:

Trip Planner

Search our weather history database for the weather conditions in past years. The results will help you decide how hot, cold, wet, or windy it might be!

Date:

Astronomy

Mar. 15, 2013 Rise Set
Actual Time 5:56 AM CST 5:59 PM CST
Civil Twilight 5:34 AM CST 6:20 PM CST
Nautical Twilight 5:10 AM CST 6:45 PM CST
Astronomical Twilight 4:45 AM CST 7:10 PM CST
Moon 8:28 AM CST (3/15) 9:26 PM CST (3/15)
Length of Visible Light 12h 45m
Length of Day
12h 03m
Waxing Crescent, 16% of the Moon is Illuminated
Mar 15
Waxing Crescent
Mar 19
First Quarter
Mar 27
Full
Apr 2
Last Quarter
Apr 10
New

Hourly Weather History & Observations

Time (CST) Temp. Dew Point Humidity Pressure Visibility Wind Dir Wind Speed Gust Speed Precip Events Conditions
12:00 AM 60 °F 57 °F 88% 30.08 in 6 mi NE 11.5 mph - -   Mostly Cloudy
12:00 AM 60.8 °F 57.2 °F 88% 30.18 in 6.2 mi NE 11.5 mph - N/A   Mostly Cloudy
1:00 AM 60.8 °F 57.2 °F 88% 30.15 in 6.2 mi NNE 11.5 mph - N/A   Mostly Cloudy
2:00 AM 60.8 °F 57.2 °F 88% 30.12 in 6.2 mi NNE 9.2 mph - N/A   Mostly Cloudy
3:00 AM 59 °F 57 °F 89% 30.02 in 6 mi NNE 8.1 mph - -   Haze
3:00 AM 59.0 °F 57.2 °F 94% 30.12 in 6.2 mi NNE 8.1 mph - N/A   Mostly Cloudy
4:00 AM 59.0 °F 57.2 °F 94% 30.12 in 6.2 mi North 15.0 mph - N/A   Mostly Cloudy
5:00 AM 59.0 °F 57.2 °F 94% 30.12 in 6.2 mi NNE 15.0 mph - N/A   Mostly Cloudy
6:00 AM 59 °F 56 °F 88% 30.06 in 6 mi NE 5.8 mph - -   Haze
6:00 AM 59.0 °F 57.2 °F 94% 30.15 in 6.2 mi NE 5.8 mph - N/A   Mostly Cloudy
7:00 AM 59.0 °F 55.4 °F 88% 30.15 in 6.2 mi NNE 13.8 mph - N/A   Partly Cloudy
8:00 AM 62.6 °F 55.4 °F 77% 30.18 in 6.2 mi North 11.5 mph - N/A   Scattered Clouds
9:00 AM 67 °F 56 °F 60% 30.04 in 6 mi North 13.8 mph - -   Haze
9:00 AM 66.2 °F 57.2 °F 73% 30.18 in 6.2 mi North 13.8 mph - N/A   Scattered Clouds
10:00 AM 69.8 °F 57.2 °F 64% 30.18 in 6.2 mi North 18.4 mph - N/A   Scattered Clouds
11:00 AM 71.6 °F 57.2 °F 60% 30.15 in 6.2 mi North 13.8 mph - N/A   Scattered Clouds
12:00 PM 71.6 °F 59.0 °F 64% 30.15 in 6.2 mi North 23.0 mph - N/A   Scattered Clouds
1:00 PM 69.8 °F 59.0 °F 68% 30.12 in 6.2 mi North 21.9 mph - N/A   Mostly Cloudy
2:00 PM 73.4 °F 59.0 °F 61% 30.09 in 6.2 mi North 13.8 mph - N/A   Mostly Cloudy
3:00 PM 76 °F 59 °F 46% 29.86 in 9 mi North 18.4 mph - -   Haze
3:00 PM 75.2 °F 59.0 °F 57% 30.06 in 6.2 mi North 18.4 mph - N/A   Mostly Cloudy
4:00 PM 71.6 °F 57.2 °F 60% 30.04 in 6.2 mi North 20.7 mph - N/A   Scattered Clouds
5:00 PM 69.8 °F 59.0 °F 68% 30.06 in 6.2 mi North 16.1 mph - N/A   Mostly Cloudy
6:00 PM 67 °F 59 °F 67% 29.93 in 9 mi North 16.1 mph - -   Haze
6:00 PM 68.0 °F 59.0 °F 73% 30.06 in 6.2 mi North 16.1 mph - N/A   Mostly Cloudy
7:00 PM 68.0 °F 59.0 °F 73% 30.06 in 6.2 mi North 16.1 mph - N/A   Mostly Cloudy
8:00 PM 64.4 °F 59.0 °F 83% 30.12 in 6.2 mi North 18.4 mph - N/A   Mostly Cloudy
9:00 PM 64 °F 58 °F 77% 30.03 in 6 mi North 13.8 mph - -   Haze
9:00 PM 64.4 °F 59.0 °F 83% 30.15 in 6.2 mi North 13.8 mph - N/A   Mostly Cloudy
10:00 PM 62.6 °F 59.0 °F 88% 30.15 in 6.2 mi North 13.8 mph - N/A   Mostly Cloudy
11:00 PM 62.6 °F 59.0 °F 88% 30.15 in 6.2 mi North 9.2 mph - N/A   Mostly Cloudy